Modesto City - County Airport

Airport
ICAO code: 
KMOD
IATA Code: 
MOD
Summary
ICAO Region: 
NAM
Territory: 
Location: 
Modesto, California
Serving: 
Modesto
Elevation: 
97 ft
Coordinates: 
Aerial View: 
37° 37' 32.803" N, 120° 57' 11.339" W
Airport LOS: 
Parallel Runway Operation
Metar
Observation
KMOD 080940Z AUTO 00000KT 2 1/2SM HZ OVC008 11/07 A3004 RMK AO2 T01060072
Station
Modesto, Modesto City-County-Sham Field
Date/Time
2021-12-08 09:40:00
Wind direction
Wind speed
00 kts
Lowest cloud amount
overcast
Temperature
10.6°C
Dew point
7.2°C
Humidity
79%
Weather condition
haze

Modesto City-County Airport, also known as Harry Sham Field, is located 3 km southeast of the central business district of Modesto, a city in Stanislaus County, California.

Climatology

Dry-summer subtropical ”Mediterranean" climate (Köppen climate classification Csb) - characterized by warm, dry summers and mild winters. During the summer, rising hot air in California's interior valleys creates a low pressure area that draws winds from the North Pacific High.

Runways

Designator Length Width Surface Rops
10R/28L 1054 30 ASP Yes/Yes
10L/28R 1802 46 ASP Yes/Yes
Airport map: 
Aerial View: 

SKYbrary Partners:

Safety knowledge contributed by: